Ellington Field, TX

10:03 PM CDT on October 22, 2019 (GMT -0500)
Ellington

Weather History for KEFD - September, 2019

Change the Weather History Date:

Tuesday, September 17, 2019

  Actual Average Record
Temperature  
Mean Temperature 74 °F -  
Max Temperature 78 °F 86 °F 96 °F (2004)
Min Temperature 71 °F 70 °F 60 °F (2000)
Cooling Degree Days 10    
Growing Degree Days 24 (Base 50)    
Moisture  
Dew Point 73 °F    
Average Humidity 93    
Maximum Humidity 94    
Minimum Humidity 83    
Precipitation  
Precipitation 0.00 in - - ()
Sea Level Pressure  
Sea Level Pressure 29.85 in    
Wind  
Wind Speed 8 mph ()    
Max Wind Speed 22 mph    
Max Gust Speed 31 mph    
Visibility 5.6 miles    
Events Rain    
Averages and records for this station are not official NWS values.
T = Trace of Precipitation, MM = Missing Value Source: Averaged Metar Reports

Daily Weather History Graph

Daily Weather History Graph

Search for Another Location

Airport or City:

Astronomy

Sep. 17, 2019 Rise Set
Actual Time 7:06 AM CDT 7:23 PM CDT
Civil Twilight 6:42 AM CDT 7:47 PM CDT
Nautical Twilight 6:14 AM CDT 8:15 PM CDT
Astronomical Twilight 5:46 AM CDT 8:43 PM CDT
Moon 9:41 PM CDT (9/17) 9:59 AM CDT (9/17)
Length of Visible Light 13h 05m
Length of Day
12h 17m
Waning Gibbous, 89% of the Moon is Illuminated
Sep 17
Waning Gibbous
Sep 21
Last Quarter
Sep 28
New
Oct 5
First Quarter
Oct 13
Full

Hourly Weather History & Observations

Time (CDT) Temp. Dew Point Humidity Pressure Visibility Wind Dir Wind Speed Gust Speed Precip Events Conditions
12:50 AM 77.0 °F 73.4 °F 89% 29.91 in 10.0 mi NNE 4.6 mph - N/A   Mostly Cloudy
1:50 AM 78.8 °F 73.4 °F 83% 29.91 in 10.0 mi NE 4.6 mph - N/A Rain Light Rain
2:50 AM 78.8 °F 75.2 °F 89% 29.90 in 10.0 mi NE 4.6 mph - N/A Rain Light Rain
3:50 AM 77.0 °F 73.4 °F 89% 29.90 in 5.0 mi Calm Calm - N/A Rain Heavy Rain
4:50 AM 77.0 °F 73.4 °F 89% 29.88 in 8.0 mi ENE 8.1 mph - N/A Rain Light Rain
5:50 AM 77.0 °F 75.2 °F 94% 29.86 in 10.0 mi NNE 6.9 mph - N/A Rain Light Rain
6:50 AM 77.0 °F 75.2 °F 94% 29.88 in 2.0 mi Calm Calm - N/A   Overcast
7:50 AM 75.2 °F 73.4 °F 94% 29.89 in 3.0 mi East 4.6 mph - N/A   Overcast
9:50 AM 75.2 °F 73.4 °F 94% 29.90 in 5.0 mi ENE 5.8 mph - N/A   Overcast
11:50 AM 75.2 °F 73.4 °F 94% 29.90 in 5.0 mi ENE 9.2 mph - N/A   Overcast
12:50 PM 75.2 °F 73.4 °F 94% 29.88 in 5.0 mi East 11.5 mph - N/A   Overcast
1:50 PM 75.2 °F 73.4 °F 94% 29.85 in 5.0 mi East 11.5 mph - N/A   Overcast
2:50 PM 75.2 °F 73.4 °F 94% 29.82 in 2.0 mi ENE 17.3 mph 24.2 mph N/A   Overcast
3:50 PM 75.2 °F 73.4 °F 94% 29.78 in 2.0 mi East 17.3 mph 31.1 mph N/A   Overcast
4:50 PM 75.2 °F 73.4 °F 94% 29.77 in 10.0 mi East 12.7 mph - N/A   Overcast
5:50 PM 75.2 °F 73.4 °F 94% 29.74 in 2.0 mi ESE 21.9 mph 31.1 mph N/A Rain Rain
6:50 PM 71.6 °F 69.8 °F 94% 29.76 in 3.0 mi SE 19.6 mph 28.8 mph N/A Rain Rain
7:50 PM 71.6 °F 69.8 °F 94% 29.77 in 5.0 mi SE 18.4 mph 27.6 mph N/A Rain Rain
8:50 PM 71.6 °F 69.8 °F 94% 29.80 in 5.0 mi SSE 16.1 mph 24.2 mph N/A   Overcast
9:50 PM 71.6 °F 69.8 °F 94% 29.81 in 10.0 mi South 18.4 mph - N/A   Overcast
10:50 PM 71.6 °F 69.8 °F 94% 29.82 in 4.0 mi SSE 19.6 mph - N/A   Overcast
11:50 PM 71.6 °F 69.8 °F 94% 29.94 in 3.0 mi SE 11.5 mph - N/A   Overcast